{"data":{"norad_id":48641,"epoch":"2026-05-25T02:53:13.235712Z","epoch_age_seconds":64354,"freshness":"FRESH","line1":"1 48641U 21044D   26145.12029208 -.00000505  00000+0 -45175-5 0  9994","line2":"2 48641  53.1609 118.6051 0001287  83.5482 276.5665 15.31700426275537","mean_motion":15.31700426,"eccentricity":0.0001287,"inclination_deg":53.1609,"raan_deg":118.6051,"arg_perigee_deg":83.5482,"mean_anomaly_deg":276.5665,"bstar":-4.5175e-6,"rev_number":27553,"period_min":94.013161813928,"perigee_km":469.85727503626,"apogee_km":471.62017564796,"semimajor_km":6848.8757253421,"source":"CELESTRAK","updated_at":"2026-05-25T13:38:16.753376Z"}}